This demonstration page uses our WeatherBlox Daily Observations layout. Learn more.

Left ArrowRight Arrow

41.55636, -103.73856

Hourly Observations for November 16, 2019

Temp ( °F °C ) Dew Point ( °F °C ) Humidity (%) Winds ( mph kmh ) Pressure ( in mb ) Visibility ( mi km ) Precip ( " mm )
12:58 am 00:58 Partly Cloudy 46 7.9 28 -2.4 49 49 SW 7 11 30.08 1019 10 16.0934 N/A
1:58 am 01:58 Mostly Cloudy 47 8.5 27 -2.9 45 45 SSW 8 13 30.06 1018 10 16.0934 N/A
2:58 am 02:58 Cloudy 49 9.4 26 -3.4 41 41 SSW 9 15 30.01 1016 10 16.0934 N/A
3:58 am 03:58 Mostly Cloudy 46 7.6 26 -3.3 46 46 SW 8 13 30.01 1016 10 16.0934 N/A
4:58 am 04:58 Mostly Clear 45 7 27 -3 49 49 SSW 8 13 30.01 1016 10 16.0934 N/A
5:58 am 05:58 Clear 42 5.6 26 -3.5 52 52 SW 6 9 29.99 1016 10 16.0934 N/A
6:58 am 06:58 Clear 45 7.3 24 -4.4 44 44 W 8 13 29.96 1015 10 16.0934 N/A
7:58 am 07:58 Clear 45 7.1 24 -4.7 43 43 W 9 15 29.94 1014 10 16.0934 N/A
8:58 am 08:58 Clear 43 6.3 24 -4.7 46 46 SSW 12 19 29.95 1014 10 16.0934 N/A
9:56 am 09:56 Clear 42 5.5 24 -4.5 49 49 SW 9 15 29.93 1014 10 16.0934 N/A
10:58 am 10:58 Clear 43 5.9 24 -4.6 47 47 SSW 9 15 29.94 1014 10 16.0934 N/A
11:58 am 11:58 Mostly Cloudy 44 6.7 25 -4 47 47 WSW 6 9 29.95 1014 10 16.0934 N/A
12:58 pm 12:58 Cloudy 43 6.3 26 -3.4 50 50 WSW 8 13 29.99 1016 10 16.0934 N/A
1:58 pm 13:58 Cloudy 44 6.7 26 -3.3 49 49 WSW 8 13 30 1016 10 16.0934 N/A
2:58 pm 14:58 Mostly Cloudy 52 11.2 23 -4.9 32 32 W 13 20 30 1016 10 16.0934 N/A
3:58 pm 15:58 Mostly Cloudy 54 12.1 24 -4.2 32 32 WNW 20 31 30.01 1016 10 16.0934 N/A
4:58 pm 16:58 Mostly Cloudy 55 12.6 24 -4.4 31 31 NW 16 26 30.02 1017 10 16.0934 N/A
5:58 pm 17:58 Mostly Sunny 55 12.8 26 -3.3 33 33 NNW 16 26 30.02 1017 10 16.0934 N/A
6:58 pm 18:58 Sunny 56 13.1 31 -0.6 39 39 N 12 19 30 1016 10 16.0934 N/A
7:58 pm 19:58 Partly Cloudy 55 12.9 31 -0.6 40 40 NNE 9 15 29.98 1015 10 16.0934 N/A
8:58 pm 20:58 Mostly Cloudy 55 12.6 33 0.7 44 44 N 16 26 29.99 1016 10 16.0934 N/A
9:58 pm 21:58 Windy with Rain Showers Likely 44 6.6 35 1.7 71 71 NNW 31 50 30.11 1020 10 16.0934 N/A
10:58 pm 22:58 Windy with Rain Showers Likely 40 4.2 37 2.6 89 89 NNW 20 31 30.17 1022 10 16.0934 0.01 0.254
11:58 pm 23:58 Cloudy 38 3.2 35 1.8 91 91 NW 13 20 30.21 1023 10 16.0934 N/A

Powered by AerisWeather